User: anonymous
Location: Platte
(43.3870°N, 98.8440°W)
Time: 13:01:14
(UTC-05:00)
Language:

Landsat 7 - Orbit

View from above orbital plane
View from above orbital plane
View from above satellite
View from above satellite

Ground track
Ground track

The orbit data is extracted from the following two-line orbital elements,

1 25682U 99020A   14262.16533114  .00000354  00000-0  88679-4 0  6151
2 25682 098.2294 330.5164 0000919 092.2487 267.8828 14.57101419820679
Epoch (UTC): 19 September 2014 03:58:04
Eccentricity: 0.0000919
inclination: 98.2294°
perigee height: 702 km
apogee height: 703 km
right ascension of ascending node: 330.5164°
argument of perigee: 92.2487°
revolutions per day: 14.57101419
mean anomaly at epoch: 267.8828°
orbit number at epoch: 82067

The dashed part of the orbit path shows where the satellite is in the earth's shadow,  

DLR